Home > Time Zones > World Clock > Weather > U.S.A. > Adak > Past weeks

Flag for U.S.A. Weather past 2 weeks in Adak, Alaska, U.S.A.

Now
45 °F

Low clouds.


Feels Like: 34 °F
Forecast: 38 / 42 °F
Wind: 36 mph from Southwest

Location: Adak

Current Time: Mar 5, 2015 at 11:46:34 PM

Latest Report: Mar 5, 2015 at 11:16 PM


Visibility: 5 mi

Pressure: 30.03 "Hg

Humidity: 81%

Dew point: 39 °F

Location of AdakLocation

Historic Weather in Adak — Graph

°F

Adak temperature yesterday

Maximum temperature yesterday: 39 °F (at 1:16 PM)
Minimum temperature yesterday: 34 °F (at 8:36 AM)
Average temperature yesterday: 36 °F

Past Weeks' High & Low Weather Summary

 TemperatureHumidityPressure
High46 °F (Mar 5, 5:56 PM)87% (Feb 26, 10:16 PM)30.46 "Hg (Feb 26, 10:16 PM)
Low19 °F (Feb 24, 3:16 AM)44% (Feb 23, 3:56 PM)29.47 "Hg (Feb 19, 5:36 AM)
Average35 °F68%30.00 "Hg
* Reported Feb 18 10:16 PM — Mar 5 10:36 PM, Adak, Weather by CustomWeather, © 2015

Note: Actual official high and low records may vary slightly from our data, if they occured in-between our weather recording intervals... More about our weather records

Advertising

Adak weather history for previous 24 hours

 ConditionsComfort  
Time TempWeatherWind HumidityBarometerVisibility
10:36 PM
Thu, Mar 5
45 °FMostly cloudy.39 mph81%30.02 "Hg6 mi
9:56 PM45 °FMostly cloudy.39 mph81%30.03 "Hg7 mi
9:36 PM45 °FMostly cloudy.37 mph81%30.04 "Hg7 mi
9:16 PM45 °FMostly cloudy.41 mph81%30.04 "Hg6 mi
8:56 PM45 °FMostly cloudy.37 mph81%30.05 "Hg7 mi
8:16 PM45 °FMostly cloudy.31 mph81%30.06 "Hg8 mi
7:56 PM45 °FMostly cloudy.41 mph81%30.05 "Hg9 mi
7:36 PM45 °FMostly cloudy.37 mph81%30.05 "Hg5 mi
7:16 PM45 °FOvercast.37 mph81%30.06 "Hg7 mi
6:56 PM45 °FOvercast.33 mph81%30.06 "Hg3 mi
6:36 PM45 °FOvercast.35 mph81%30.07 "Hg4 mi
6:16 PM45 °FMostly cloudy.31 mph81%30.07 "Hg5 mi
5:56 PM46 °FMostly cloudy.43 mph76%30.05 "Hg5 mi
5:36 PM45 °FMostly cloudy.30 mph81%30.06 "Hg2 mi
4:56 PM43 °FOvercast.29 mph81%30.07 "Hg4 mi
4:36 PM43 °FOvercast.28 mph76%30.09 "Hg5 mi
4:16 PM43 °FMostly cloudy.20 mph76%30.11 "Hg5 mi
3:56 PM41 °FMore clouds than sun.25 mph81%30.12 "Hg5 mi
3:36 PM41 °FMore clouds than sun.29 mph81%30.12 "Hg5 mi
3:16 PM41 °FMostly cloudy.30 mph81%30.14 "Hg6 mi
2:56 PM39 °FMostly cloudy.23 mph81%30.16 "Hg7 mi
2:36 PM39 °FMostly cloudy.28 mph81%30.18 "Hg5 mi
2:16 PM39 °FMostly cloudy.25 mph81%30.20 "Hg5 mi
1:56 PM39 °FOvercast.23 mph75%30.22 "Hg6 mi
1:16 PM37 °FOvercast.7 mph75%30.27 "Hg7 mi
12:56 PM37 °FOvercast.7 mph75%30.29 "Hg7 mi
12:36 PM37 °FOvercast.17 mph75%30.29 "Hg7 mi
11:56 AM37 °FMostly cloudy.25 mph75%30.31 "Hg7 mi
11:36 AM37 °FMostly cloudy.22 mph75%30.31 "Hg8 mi
10:56 AM37 °FCloudy.28 mph70%30.34 "Hg9 mi
10:36 AM37 °FMostly cloudy.25 mph70%30.34 "Hg9 mi
10:16 AM37 °FMostly cloudy.26 mph70%30.35 "Hg8 mi
9:56 AM36 °FOvercast.20 mph70%30.37 "Hg8 mi
9:36 AM36 °FMostly cloudy.16 mph70%30.38 "Hg9 mi
9:16 AM36 °FOvercast.8 mph70%30.38 "Hg8 mi
8:56 AM36 °FOvercast.10 mph70%30.39 "Hg8 mi
8:36 AM36 °FOvercast.13 mph70%30.40 "Hg8 mi
8:16 AM36 °FOvercast.8 mph70%30.41 "Hg9 mi
7:56 AM36 °FOvercast.12 mph70%30.41 "Hg10 mi
7:36 AM36 °FPartly sunny.12 mph70%30.40 "Hg10 mi
7:16 AM36 °FPassing clouds.10 mph70%30.40 "Hg10 mi
6:56 AM36 °FOvercast.9 mph70%30.42 "Hg10 mi
6:36 AM36 °FPartly cloudy.9 mph70%30.42 "Hg10 mi
6:16 AM34 °FPassing clouds.12 mph75%30.42 "Hg8 mi
5:56 AM34 °FPartly cloudy.5 mph75%30.42 "Hg8 mi
5:36 AM34 °FPassing clouds.15 mph75%30.42 "Hg8 mi
5:16 AM36 °FPassing clouds.16 mph70%30.44 "Hg8 mi
4:56 AM36 °FOvercast.15 mph75%30.44 "Hg8 mi
4:36 AM32 °FOvercast.10 mph75%30.45 "Hg8 mi
4:16 AM32 °FOvercast.9 mph75%30.45 "Hg8 mi
3:56 AM32 °FOvercast.6 mph75%30.46 "Hg8 mi
3:36 AM32 °FOvercast.8 mph75%30.45 "Hg10 mi
3:16 AM34 °FOvercast.8 mph70%30.46 "Hg10 mi
2:56 AM34 °FPassing clouds.8 mph70%30.45 "Hg10 mi
2:36 AM34 °FPassing clouds.12 mph70%30.44 "Hg10 mi
2:16 AM36 °FPassing clouds.9 mph65%30.45 "Hg10 mi
1:56 AM36 °FPassing clouds.10 mph65%30.45 "Hg10 mi
1:36 AM36 °FPassing clouds.10 mph65%30.45 "Hg10 mi
1:16 AM36 °FMostly cloudy.13 mph70%30.45 "Hg10 mi
12:56 AM36 °FOvercast.8 mph70%30.45 "Hg10 mi
12:36 AM37 °FOvercast.5 mph65%30.46 "Hg10 mi
12:16 AM36 °FOvercast.5 mph70%30.45 "Hg10 mi
11:56 PM
Wed, Mar 4
36 °FOvercast.13 mph75%30.44 "Hg10 mi
11:36 PM36 °FMostly cloudy.15 mph75%30.44 "Hg10 mi
11:16 PM36 °FMostly cloudy.17 mph70%30.43 "Hg10 mi
Weather by CustomWeather, © 2015

See weather overviewHow to use our weather pages